owner,sensor,date,latitude,longitude,air_temperature,qcFlag 
WAVCIS,ioos:station:WAVCIS:CSI15:1,2011-05-01T00:00:00Z,28.8332,-90.8320,28.27,11111222 
WAVCIS,ioos:station:WAVCIS:CSI15:1,2011-05-01T01:00:00Z,28.8332,-90.8320,28.22,11111222 
WAVCIS,ioos:station:WAVCIS:CSI15:1,2011-05-01T02:00:00Z,28.8332,-90.8320,28.13,11111222 
WAVCIS,ioos:station:WAVCIS:CSI15:1,2011-05-01T03:00:00Z,28.8332,-90.8320,28.04,11111222 
WAVCIS,ioos:station:WAVCIS:CSI15:1,2011-05-01T04:00:00Z,28.8332,-90.8320,28.16,11111222 
WAVCIS,ioos:station:WAVCIS:CSI15:1,2011-05-01T05:00:00Z,28.8332,-90.8320,28.14,11111222 
WAVCIS,ioos:station:WAVCIS:CSI15:1,2011-05-01T06:00:00Z,28.8332,-90.8320,28.09,11111222 
WAVCIS,ioos:station:WAVCIS:CSI15:1,2011-05-01T07:00:00Z,28.8332,-90.8320,29.09,11111222 
WAVCIS,ioos:station:WAVCIS:CSI15:1,2011-05-01T08:00:00Z,28.8332,-90.8320,28.12,11111222 
WAVCIS,ioos:station:WAVCIS:CSI15:1,2011-05-01T09:00:00Z,28.8332,-90.8320,29.03,11111222 
WAVCIS,ioos:station:WAVCIS:CSI15:1,2011-05-01T10:00:00Z,28.8332,-90.8320,27.96,11111222 
WAVCIS,ioos:station:WAVCIS:CSI15:1,2011-05-01T11:00:00Z,28.8332,-90.8320,27.92,11111222 
WAVCIS,ioos:station:WAVCIS:CSI15:1,2011-05-01T12:00:00Z,28.8332,-90.8320,28.02,11111222 
WAVCIS,ioos:station:WAVCIS:CSI15:1,2011-05-01T13:00:00Z,28.8332,-90.8320,28.27,11111222 
WAVCIS,ioos:station:WAVCIS:CSI15:1,2011-05-01T14:00:00Z,28.8332,-90.8320,28.39,11111222 
WAVCIS,ioos:station:WAVCIS:CSI15:1,2011-05-01T15:00:00Z,28.8332,-90.8320,28.44,11111222 
WAVCIS,ioos:station:WAVCIS:CSI15:1,2011-05-01T16:00:00Z,28.8332,-90.8320,28.95,11111222 
WAVCIS,ioos:station:WAVCIS:CSI15:1,2011-05-01T17:00:00Z,28.8332,-90.8320,29.08,11111222 
WAVCIS,ioos:station:WAVCIS:CSI15:1,2011-05-01T18:00:00Z,28.8332,-90.8320,31.11,11111222 
WAVCIS,ioos:station:WAVCIS:CSI15:1,2011-05-01T19:00:00Z,28.8332,-90.8320,29.61,11111222 
WAVCIS,ioos:station:WAVCIS:CSI15:1,2011-05-01T20:00:00Z,28.8332,-90.8320,29.57,11111222 
WAVCIS,ioos:station:WAVCIS:CSI15:1,2011-05-01T21:00:00Z,28.8332,-90.8320,30.05,11111222 
WAVCIS,ioos:station:WAVCIS:CSI15:1,2011-05-01T22:00:00Z,28.8332,-90.8320,30.44,11111222 
WAVCIS,ioos:station:WAVCIS:CSI15:1,2011-05-01T23:00:00Z,28.8332,-90.8320,29.69,11111222 
WAVCIS,ioos:station:WAVCIS:CSI15:1,2011-05-02T00:00:00Z,28.8332,-90.8320,29.61,11111222 
WAVCIS,ioos:station:WAVCIS:CSI15:1,2011-05-02T01:00:00Z,28.8332,-90.8320,29.37,11111222 
WAVCIS,ioos:station:WAVCIS:CSI15:1,2011-05-02T02:00:00Z,28.8332,-90.8320,28.62,11111222 
WAVCIS,ioos:station:WAVCIS:CSI15:1,2011-05-02T03:00:00Z,28.8332,-90.8320,28.53,11111222 
WAVCIS,ioos:station:WAVCIS:CSI15:1,2011-05-02T04:00:00Z,28.8332,-90.8320,28.74,11111222 
WAVCIS,ioos:station:WAVCIS:CSI15:1,2011-05-02T05:00:00Z,28.8332,-90.8320,30.2,11111222 
WAVCIS,ioos:station:WAVCIS:CSI15:1,2011-05-02T06:00:00Z,28.8332,-90.8320,29.07,11111222 
WAVCIS,ioos:station:WAVCIS:CSI15:1,2011-05-02T07:00:00Z,28.8332,-90.8320,28.79,11111222 
WAVCIS,ioos:station:WAVCIS:CSI15:1,2011-05-02T08:00:00Z,28.8332,-90.8320,30.49,11111222 
WAVCIS,ioos:station:WAVCIS:CSI15:1,2011-05-02T09:00:00Z,28.8332,-90.8320,29.06,11111222 
WAVCIS,ioos:station:WAVCIS:CSI15:1,2011-05-02T10:00:00Z,28.8332,-90.8320,29.67,11111222 
WAVCIS,ioos:station:WAVCIS:CSI15:1,2011-05-02T11:00:00Z,28.8332,-90.8320,30.04,11111222 
WAVCIS,ioos:station:WAVCIS:CSI15:1,2011-05-02T12:00:00Z,28.8332,-90.8320,28.9,11111222 
WAVCIS,ioos:station:WAVCIS:CSI15:1,2011-05-02T13:00:00Z,28.8332,-90.8320,30.25,11111222 
WAVCIS,ioos:station:WAVCIS:CSI15:1,2011-05-02T14:00:00Z,28.8332,-90.8320,28.95,11111222 
WAVCIS,ioos:station:WAVCIS:CSI15:1,2011-05-02T15:00:00Z,28.8332,-90.8320,29.14,11111222 
WAVCIS,ioos:station:WAVCIS:CSI15:1,2011-05-02T16:00:00Z,28.8332,-90.8320,29.11,11111222 
WAVCIS,ioos:station:WAVCIS:CSI15:1,2011-05-02T17:00:00Z,28.8332,-90.8320,29.42,11111222 
WAVCIS,ioos:station:WAVCIS:CSI15:1,2011-05-02T18:00:00Z,28.8332,-90.8320,29.43,11111222 
WAVCIS,ioos:station:WAVCIS:CSI15:1,2011-05-02T19:00:00Z,28.8332,-90.8320,30.07,11111222 
WAVCIS,ioos:station:WAVCIS:CSI15:1,2011-05-02T20:00:00Z,28.8332,-90.8320,30.31,11111222 
WAVCIS,ioos:station:WAVCIS:CSI15:1,2011-05-02T21:00:00Z,28.8332,-90.8320,29.84,11111222 
WAVCIS,ioos:station:WAVCIS:CSI15:1,2011-05-02T22:00:00Z,28.8332,-90.8320,30.73,11111222 
WAVCIS,ioos:station:WAVCIS:CSI15:1,2011-05-02T23:00:00Z,28.8332,-90.8320,30.18,11111222 
WAVCIS,ioos:station:WAVCIS:CSI15:1,2011-05-03T00:00:00Z,28.8332,-90.8320,29.89,11111222 
WAVCIS,ioos:station:WAVCIS:CSI15:1,2011-05-03T01:00:00Z,28.8332,-90.8320,30.75,11111222 
WAVCIS,ioos:station:WAVCIS:CSI15:1,2011-05-03T02:00:00Z,28.8332,-90.8320,29.57,11111222 
WAVCIS,ioos:station:WAVCIS:CSI15:1,2011-05-03T03:00:00Z,28.8332,-90.8320,31.4,11111222 
WAVCIS,ioos:station:WAVCIS:CSI15:1,2011-05-03T04:00:00Z,28.8332,-90.8320,29.1,11111222 
WAVCIS,ioos:station:WAVCIS:CSI15:1,2011-05-03T05:00:00Z,28.8332,-90.8320,28.81,11111222 
WAVCIS,ioos:station:WAVCIS:CSI15:1,2011-05-03T06:00:00Z,28.8332,-90.8320,28.73,11111222 
WAVCIS,ioos:station:WAVCIS:CSI15:1,2011-05-03T07:00:00Z,28.8332,-90.8320,28.65,11111222 
WAVCIS,ioos:station:WAVCIS:CSI15:1,2011-05-03T08:00:00Z,28.8332,-90.8320,28.56,11111222 
WAVCIS,ioos:station:WAVCIS:CSI15:1,2011-05-03T09:00:00Z,28.8332,-90.8320,28.48,11111222 
WAVCIS,ioos:station:WAVCIS:CSI15:1,2011-05-03T10:00:00Z,28.8332,-90.8320,28.46,11111222 
WAVCIS,ioos:station:WAVCIS:CSI15:1,2011-05-03T11:00:00Z,28.8332,-90.8320,28.46,11111222 
WAVCIS,ioos:station:WAVCIS:CSI15:1,2011-05-03T12:00:00Z,28.8332,-90.8320,28.53,11111222 
WAVCIS,ioos:station:WAVCIS:CSI15:1,2011-05-03T13:00:00Z,28.8332,-90.8320,28.44,11111222 
WAVCIS,ioos:station:WAVCIS:CSI15:1,2011-05-03T14:00:00Z,28.8332,-90.8320,28.58,11111222 
WAVCIS,ioos:station:WAVCIS:CSI15:1,2011-05-03T15:00:00Z,28.8332,-90.8320,26.79,11111222 
WAVCIS,ioos:station:WAVCIS:CSI15:1,2011-05-03T16:00:00Z,28.8332,-90.8320,23.89,11111222 
WAVCIS,ioos:station:WAVCIS:CSI15:1,2011-05-03T17:00:00Z,28.8332,-90.8320,23.83,11111222 
WAVCIS,ioos:station:WAVCIS:CSI15:1,2011-05-03T18:00:00Z,28.8332,-90.8320,23.43,11111222 
WAVCIS,ioos:station:WAVCIS:CSI15:1,2011-05-03T19:00:00Z,28.8332,-90.8320,23.84,11111222 
WAVCIS,ioos:station:WAVCIS:CSI15:1,2011-05-03T20:00:00Z,28.8332,-90.8320,23.87,11111222 
WAVCIS,ioos:station:WAVCIS:CSI15:1,2011-05-03T21:00:00Z,28.8332,-90.8320,23.67,11111222 
WAVCIS,ioos:station:WAVCIS:CSI15:1,2011-05-03T22:00:00Z,28.8332,-90.8320,21.9,11111222 
WAVCIS,ioos:station:WAVCIS:CSI15:1,2011-05-03T23:00:00Z,28.8332,-90.8320,20.93,11111222 
WAVCIS,ioos:station:WAVCIS:CSI15:1,2011-05-04T00:00:00Z,28.8332,-90.8320,20.21,11111222 
WAVCIS,ioos:station:WAVCIS:CSI15:1,2011-05-04T01:00:00Z,28.8332,-90.8320,20.38,11111222 
WAVCIS,ioos:station:WAVCIS:CSI15:1,2011-05-04T02:00:00Z,28.8332,-90.8320,20.0,11111222 
WAVCIS,ioos:station:WAVCIS:CSI15:1,2011-05-04T03:00:00Z,28.8332,-90.8320,20.24,11111222 
WAVCIS,ioos:station:WAVCIS:CSI15:1,2011-05-04T04:00:00Z,28.8332,-90.8320,20.38,11111222 
WAVCIS,ioos:station:WAVCIS:CSI15:1,2011-05-04T05:00:00Z,28.8332,-90.8320,20.44,11111222 
WAVCIS,ioos:station:WAVCIS:CSI15:1,2011-05-04T06:00:00Z,28.8332,-90.8320,21.04,11111222 
WAVCIS,ioos:station:WAVCIS:CSI15:1,2011-05-04T07:00:00Z,28.8332,-90.8320,21.15,11111222 
WAVCIS,ioos:station:WAVCIS:CSI15:1,2011-05-04T08:00:00Z,28.8332,-90.8320,20.96,11111222 
WAVCIS,ioos:station:WAVCIS:CSI15:1,2011-05-04T09:00:00Z,28.8332,-90.8320,20.67,11111222 
WAVCIS,ioos:station:WAVCIS:CSI15:1,2011-05-04T10:00:00Z,28.8332,-90.8320,20.52,11111222 
WAVCIS,ioos:station:WAVCIS:CSI15:1,2011-05-04T11:00:00Z,28.8332,-90.8320,20.26,11111222 
WAVCIS,ioos:station:WAVCIS:CSI15:1,2011-05-04T12:00:00Z,28.8332,-90.8320,20.39,11111222 
WAVCIS,ioos:station:WAVCIS:CSI15:1,2011-05-04T13:00:00Z,28.8332,-90.8320,20.64,11111222 
WAVCIS,ioos:station:WAVCIS:CSI15:1,2011-05-04T14:00:00Z,28.8332,-90.8320,21.13,11111222 
WAVCIS,ioos:station:WAVCIS:CSI15:1,2011-05-04T15:00:00Z,28.8332,-90.8320,21.75,11111222 
WAVCIS,ioos:station:WAVCIS:CSI15:1,2011-05-04T16:00:00Z,28.8332,-90.8320,22.31,11111222 
WAVCIS,ioos:station:WAVCIS:CSI15:1,2011-05-04T17:00:00Z,28.8332,-90.8320,22.68,11111222 
WAVCIS,ioos:station:WAVCIS:CSI15:1,2011-05-04T18:00:00Z,28.8332,-90.8320,22.78,11111222 
WAVCIS,ioos:station:WAVCIS:CSI15:1,2011-05-04T19:00:00Z,28.8332,-90.8320,23.04,11111222 
WAVCIS,ioos:station:WAVCIS:CSI15:1,2011-05-04T20:00:00Z,28.8332,-90.8320,23.24,11111222 
WAVCIS,ioos:station:WAVCIS:CSI15:1,2011-05-04T21:00:00Z,28.8332,-90.8320,23.64,11111222 
WAVCIS,ioos:station:WAVCIS:CSI15:1,2011-05-04T22:00:00Z,28.8332,-90.8320,24.06,11111222 
WAVCIS,ioos:station:WAVCIS:CSI15:1,2011-05-04T23:00:00Z,28.8332,-90.8320,24.49,11111222 
WAVCIS,ioos:station:WAVCIS:CSI15:1,2011-05-05T00:00:00Z,28.8332,-90.8320,24.64,11111222 
WAVCIS,ioos:station:WAVCIS:CSI15:1,2011-05-05T01:00:00Z,28.8332,-90.8320,24.72,11111222 
WAVCIS,ioos:station:WAVCIS:CSI15:1,2011-05-05T02:00:00Z,28.8332,-90.8320,24.98,11111222 
WAVCIS,ioos:station:WAVCIS:CSI15:1,2011-05-05T03:00:00Z,28.8332,-90.8320,25.17,11111222 
WAVCIS,ioos:station:WAVCIS:CSI15:1,2011-05-05T04:00:00Z,28.8332,-90.8320,25.07,11111222 
WAVCIS,ioos:station:WAVCIS:CSI15:1,2011-05-05T05:00:00Z,28.8332,-90.8320,24.89,11111222 
WAVCIS,ioos:station:WAVCIS:CSI15:1,2011-05-05T06:00:00Z,28.8332,-90.8320,25.2,11111222 
WAVCIS,ioos:station:WAVCIS:CSI15:1,2011-05-05T07:00:00Z,28.8332,-90.8320,25.21,11111222 
WAVCIS,ioos:station:WAVCIS:CSI15:1,2011-05-05T08:00:00Z,28.8332,-90.8320,24.86,11111222 
WAVCIS,ioos:station:WAVCIS:CSI15:1,2011-05-05T09:00:00Z,28.8332,-90.8320,24.79,11111222 
WAVCIS,ioos:station:WAVCIS:CSI15:1,2011-05-05T10:00:00Z,28.8332,-90.8320,24.64,11111222 
WAVCIS,ioos:station:WAVCIS:CSI15:1,2011-05-05T11:00:00Z,28.8332,-90.8320,24.7,11111222 
WAVCIS,ioos:station:WAVCIS:CSI15:1,2011-05-05T12:00:00Z,28.8332,-90.8320,24.65,11111222 
WAVCIS,ioos:station:WAVCIS:CSI15:1,2011-05-05T13:00:00Z,28.8332,-90.8320,23.98,11111222 
WAVCIS,ioos:station:WAVCIS:CSI15:1,2011-05-05T14:00:00Z,28.8332,-90.8320,23.93,11111222 
WAVCIS,ioos:station:WAVCIS:CSI15:1,2011-05-05T15:00:00Z,28.8332,-90.8320,23.94,11111222 
WAVCIS,ioos:station:WAVCIS:CSI15:1,2011-05-05T16:00:00Z,28.8332,-90.8320,24.3,11111222 
WAVCIS,ioos:station:WAVCIS:CSI15:1,2011-05-05T17:00:00Z,28.8332,-90.8320,24.6,11111222 
WAVCIS,ioos:station:WAVCIS:CSI15:1,2011-05-05T18:00:00Z,28.8332,-90.8320,24.95,11111222 
WAVCIS,ioos:station:WAVCIS:CSI15:1,2011-05-05T19:00:00Z,28.8332,-90.8320,24.75,11111222 
WAVCIS,ioos:station:WAVCIS:CSI15:1,2011-05-05T20:00:00Z,28.8332,-90.8320,24.7,11111222 
WAVCIS,ioos:station:WAVCIS:CSI15:1,2011-05-05T21:00:00Z,28.8332,-90.8320,25.5,11111222 
WAVCIS,ioos:station:WAVCIS:CSI15:1,2011-05-05T22:00:00Z,28.8332,-90.8320,25.31,11111222 
WAVCIS,ioos:station:WAVCIS:CSI15:1,2011-05-05T23:00:00Z,28.8332,-90.8320,25.18,11111222 
WAVCIS,ioos:station:WAVCIS:CSI15:1,2011-05-06T00:00:00Z,28.8332,-90.8320,25.01,11111222 
WAVCIS,ioos:station:WAVCIS:CSI15:1,2011-05-06T01:00:00Z,28.8332,-90.8320,24.79,11111222 
WAVCIS,ioos:station:WAVCIS:CSI15:1,2011-05-06T02:00:00Z,28.8332,-90.8320,24.94,11111222 
WAVCIS,ioos:station:WAVCIS:CSI15:1,2011-05-06T03:00:00Z,28.8332,-90.8320,25.0,11111222 
WAVCIS,ioos:station:WAVCIS:CSI15:1,2011-05-06T04:00:00Z,28.8332,-90.8320,25.04,11111222 
WAVCIS,ioos:station:WAVCIS:CSI15:1,2011-05-06T05:00:00Z,28.8332,-90.8320,25.07,11111222 
WAVCIS,ioos:station:WAVCIS:CSI15:1,2011-05-06T06:00:00Z,28.8332,-90.8320,25.05,11111222 
WAVCIS,ioos:station:WAVCIS:CSI15:1,2011-05-06T07:00:00Z,28.8332,-90.8320,25.02,11111222 
WAVCIS,ioos:station:WAVCIS:CSI15:1,2011-05-06T08:00:00Z,28.8332,-90.8320,24.98,11111222 
WAVCIS,ioos:station:WAVCIS:CSI15:1,2011-05-06T09:00:00Z,28.8332,-90.8320,24.88,11111222 
WAVCIS,ioos:station:WAVCIS:CSI15:1,2011-05-06T10:00:00Z,28.8332,-90.8320,24.92,11111222 
WAVCIS,ioos:station:WAVCIS:CSI15:1,2011-05-06T11:00:00Z,28.8332,-90.8320,24.87,11111222 
WAVCIS,ioos:station:WAVCIS:CSI15:1,2011-05-06T12:00:00Z,28.8332,-90.8320,25.19,11111222 
WAVCIS,ioos:station:WAVCIS:CSI15:1,2011-05-06T13:00:00Z,28.8332,-90.8320,25.48,11111222 
WAVCIS,ioos:station:WAVCIS:CSI15:1,2011-05-06T14:00:00Z,28.8332,-90.8320,25.2,11111222 
WAVCIS,ioos:station:WAVCIS:CSI15:1,2011-05-06T15:00:00Z,28.8332,-90.8320,25.26,11111222 
WAVCIS,ioos:station:WAVCIS:CSI15:1,2011-05-06T16:00:00Z,28.8332,-90.8320,25.66,11111222 
WAVCIS,ioos:station:WAVCIS:CSI15:1,2011-05-06T17:00:00Z,28.8332,-90.8320,25.72,11111222 
WAVCIS,ioos:station:WAVCIS:CSI15:1,2011-05-06T18:00:00Z,28.8332,-90.8320,26.09,11111222 
WAVCIS,ioos:station:WAVCIS:CSI15:1,2011-05-06T19:00:00Z,28.8332,-90.8320,26.41,11111222 
WAVCIS,ioos:station:WAVCIS:CSI15:1,2011-05-06T20:00:00Z,28.8332,-90.8320,26.67,11111222 
WAVCIS,ioos:station:WAVCIS:CSI15:1,2011-05-06T21:00:00Z,28.8332,-90.8320,27.1,11111222 
WAVCIS,ioos:station:WAVCIS:CSI15:1,2011-05-06T22:00:00Z,28.8332,-90.8320,28.85,11111222 
WAVCIS,ioos:station:WAVCIS:CSI15:1,2011-05-06T23:00:00Z,28.8332,-90.8320,27.85,11111222 
WAVCIS,ioos:station:WAVCIS:CSI15:1,2011-05-07T00:00:00Z,28.8332,-90.8320,27.45,11111222 
WAVCIS,ioos:station:WAVCIS:CSI15:1,2011-05-07T01:00:00Z,28.8332,-90.8320,26.73,11111222 
WAVCIS,ioos:station:WAVCIS:CSI15:1,2011-05-07T02:00:00Z,28.8332,-90.8320,26.46,11111222 
WAVCIS,ioos:station:WAVCIS:CSI15:1,2011-05-07T03:00:00Z,28.8332,-90.8320,28.94,11111222 
WAVCIS,ioos:station:WAVCIS:CSI15:1,2011-05-07T04:00:00Z,28.8332,-90.8320,26.63,11111222 
WAVCIS,ioos:station:WAVCIS:CSI15:1,2011-05-07T05:00:00Z,28.8332,-90.8320,27.0,11111222 
WAVCIS,ioos:station:WAVCIS:CSI15:1,2011-05-07T06:00:00Z,28.8332,-90.8320,26.29,11111222 
WAVCIS,ioos:station:WAVCIS:CSI15:1,2011-05-07T07:00:00Z,28.8332,-90.8320,26.24,11111222 
WAVCIS,ioos:station:WAVCIS:CSI15:1,2011-05-07T08:00:00Z,28.8332,-90.8320,26.06,11111222 
WAVCIS,ioos:station:WAVCIS:CSI15:1,2011-05-07T09:00:00Z,28.8332,-90.8320,26.08,11111222 
WAVCIS,ioos:station:WAVCIS:CSI15:1,2011-05-07T10:00:00Z,28.8332,-90.8320,26.05,11111222 
WAVCIS,ioos:station:WAVCIS:CSI15:1,2011-05-07T11:00:00Z,28.8332,-90.8320,26.36,11111222 
WAVCIS,ioos:station:WAVCIS:CSI15:1,2011-05-07T12:00:00Z,28.8332,-90.8320,26.5,11111222 
WAVCIS,ioos:station:WAVCIS:CSI15:1,2011-05-07T13:00:00Z,28.8332,-90.8320,27.02,11111222 
WAVCIS,ioos:station:WAVCIS:CSI15:1,2011-05-07T14:00:00Z,28.8332,-90.8320,28.71,11111222 
WAVCIS,ioos:station:WAVCIS:CSI15:1,2011-05-07T15:00:00Z,28.8332,-90.8320,28.19,11111222 
WAVCIS,ioos:station:WAVCIS:CSI15:1,2011-05-07T16:00:00Z,28.8332,-90.8320,27.61,11111222 
WAVCIS,ioos:station:WAVCIS:CSI15:1,2011-05-07T17:00:00Z,28.8332,-90.8320,27.89,11111222 
WAVCIS,ioos:station:WAVCIS:CSI15:1,2011-05-07T18:00:00Z,28.8332,-90.8320,27.79,11111222 
WAVCIS,ioos:station:WAVCIS:CSI15:1,2011-05-07T19:00:00Z,28.8332,-90.8320,27.95,11111222 
WAVCIS,ioos:station:WAVCIS:CSI15:1,2011-05-07T20:00:00Z,28.8332,-90.8320,28.38,11111222 
WAVCIS,ioos:station:WAVCIS:CSI15:1,2011-05-07T21:00:00Z,28.8332,-90.8320,28.31,11111222 
WAVCIS,ioos:station:WAVCIS:CSI15:1,2011-05-07T22:00:00Z,28.8332,-90.8320,28.39,11111222 
WAVCIS,ioos:station:WAVCIS:CSI15:1,2011-05-07T23:00:00Z,28.8332,-90.8320,28.47,11111222 
WAVCIS,ioos:station:WAVCIS:CSI15:1,2011-05-08T00:00:00Z,28.8332,-90.8320,28.53,11111222 
WAVCIS,ioos:station:WAVCIS:CSI15:1,2011-05-08T01:00:00Z,28.8332,-90.8320,30.6,11111222 
WAVCIS,ioos:station:WAVCIS:CSI15:1,2011-05-08T02:00:00Z,28.8332,-90.8320,28.02,11111222 
WAVCIS,ioos:station:WAVCIS:CSI15:1,2011-05-08T03:00:00Z,28.8332,-90.8320,27.87,11111222 
WAVCIS,ioos:station:WAVCIS:CSI15:1,2011-05-08T04:00:00Z,28.8332,-90.8320,29.1,11111222 
WAVCIS,ioos:station:WAVCIS:CSI15:1,2011-05-08T05:00:00Z,28.8332,-90.8320,27.48,11111222 
WAVCIS,ioos:station:WAVCIS:CSI15:1,2011-05-08T06:00:00Z,28.8332,-90.8320,27.55,11111222 
WAVCIS,ioos:station:WAVCIS:CSI15:1,2011-05-08T07:00:00Z,28.8332,-90.8320,27.39,11111222 
WAVCIS,ioos:station:WAVCIS:CSI15:1,2011-05-08T08:00:00Z,28.8332,-90.8320,27.48,11111222 
WAVCIS,ioos:station:WAVCIS:CSI15:1,2011-05-08T09:00:00Z,28.8332,-90.8320,27.52,11111222 
WAVCIS,ioos:station:WAVCIS:CSI15:1,2011-05-08T10:00:00Z,28.8332,-90.8320,27.47,11111222 
WAVCIS,ioos:station:WAVCIS:CSI15:1,2011-05-08T11:00:00Z,28.8332,-90.8320,27.42,11111222 
WAVCIS,ioos:station:WAVCIS:CSI15:1,2011-05-08T12:00:00Z,28.8332,-90.8320,27.79,11111222 
WAVCIS,ioos:station:WAVCIS:CSI15:1,2011-05-08T13:00:00Z,28.8332,-90.8320,27.89,11111222 
WAVCIS,ioos:station:WAVCIS:CSI15:1,2011-05-08T14:00:00Z,28.8332,-90.8320,28.2,11111222 
WAVCIS,ioos:station:WAVCIS:CSI15:1,2011-05-08T15:00:00Z,28.8332,-90.8320,28.18,11111222 
WAVCIS,ioos:station:WAVCIS:CSI15:1,2011-05-08T16:00:00Z,28.8332,-90.8320,28.22,11111222 
WAVCIS,ioos:station:WAVCIS:CSI15:1,2011-05-08T17:00:00Z,28.8332,-90.8320,28.41,11111222 
WAVCIS,ioos:station:WAVCIS:CSI15:1,2011-05-08T18:00:00Z,28.8332,-90.8320,28.63,11111222 
WAVCIS,ioos:station:WAVCIS:CSI15:1,2011-05-08T19:00:00Z,28.8332,-90.8320,28.82,11111222 
WAVCIS,ioos:station:WAVCIS:CSI15:1,2011-05-08T20:00:00Z,28.8332,-90.8320,28.89,11111222 
WAVCIS,ioos:station:WAVCIS:CSI15:1,2011-05-08T21:00:00Z,28.8332,-90.8320,28.99,11111222 
WAVCIS,ioos:station:WAVCIS:CSI15:1,2011-05-08T22:00:00Z,28.8332,-90.8320,29.14,11111222 
WAVCIS,ioos:station:WAVCIS:CSI15:1,2011-05-08T23:00:00Z,28.8332,-90.8320,29.25,11111222 
WAVCIS,ioos:station:WAVCIS:CSI15:1,2011-05-09T00:00:00Z,28.8332,-90.8320,29.12,11111222 
WAVCIS,ioos:station:WAVCIS:CSI15:1,2011-05-09T01:00:00Z,28.8332,-90.8320,28.71,11111222 
WAVCIS,ioos:station:WAVCIS:CSI15:1,2011-05-09T02:00:00Z,28.8332,-90.8320,28.55,11111222 
WAVCIS,ioos:station:WAVCIS:CSI15:1,2011-05-09T03:00:00Z,28.8332,-90.8320,28.6,11111222 
WAVCIS,ioos:station:WAVCIS:CSI15:1,2011-05-09T04:00:00Z,28.8332,-90.8320,29.01,11111222 
WAVCIS,ioos:station:WAVCIS:CSI15:1,2011-05-09T05:00:00Z,28.8332,-90.8320,28.4,11111222 
WAVCIS,ioos:station:WAVCIS:CSI15:1,2011-05-09T06:00:00Z,28.8332,-90.8320,28.32,11111222 
WAVCIS,ioos:station:WAVCIS:CSI15:1,2011-05-09T07:00:00Z,28.8332,-90.8320,28.3,11111222 
WAVCIS,ioos:station:WAVCIS:CSI15:1,2011-05-09T08:00:00Z,28.8332,-90.8320,28.43,11111222 
WAVCIS,ioos:station:WAVCIS:CSI15:1,2011-05-09T09:00:00Z,28.8332,-90.8320,28.4,11111222 
WAVCIS,ioos:station:WAVCIS:CSI15:1,2011-05-09T10:00:00Z,28.8332,-90.8320,28.35,11111222 
WAVCIS,ioos:station:WAVCIS:CSI15:1,2011-05-09T11:00:00Z,28.8332,-90.8320,28.31,11111222 
WAVCIS,ioos:station:WAVCIS:CSI15:1,2011-05-09T12:00:00Z,28.8332,-90.8320,28.34,11111222 
WAVCIS,ioos:station:WAVCIS:CSI15:1,2011-05-09T13:00:00Z,28.8332,-90.8320,28.73,11111222 
WAVCIS,ioos:station:WAVCIS:CSI15:1,2011-05-09T14:00:00Z,28.8332,-90.8320,28.95,11111222 
WAVCIS,ioos:station:WAVCIS:CSI15:1,2011-05-09T15:00:00Z,28.8332,-90.8320,28.97,11111222 
WAVCIS,ioos:station:WAVCIS:CSI15:1,2011-05-09T16:00:00Z,28.8332,-90.8320,28.91,11111222 
WAVCIS,ioos:station:WAVCIS:CSI15:1,2011-05-09T17:00:00Z,28.8332,-90.8320,29.12,11111222 
WAVCIS,ioos:station:WAVCIS:CSI15:1,2011-05-09T18:00:00Z,28.8332,-90.8320,29.34,11111222 
WAVCIS,ioos:station:WAVCIS:CSI15:1,2011-05-09T19:00:00Z,28.8332,-90.8320,29.69,11111222 
WAVCIS,ioos:station:WAVCIS:CSI15:1,2011-05-09T20:00:00Z,28.8332,-90.8320,29.76,11111222 
WAVCIS,ioos:station:WAVCIS:CSI15:1,2011-05-09T21:00:00Z,28.8332,-90.8320,29.89,11111222 
WAVCIS,ioos:station:WAVCIS:CSI15:1,2011-05-09T22:00:00Z,28.8332,-90.8320,30.05,11111222 
WAVCIS,ioos:station:WAVCIS:CSI15:1,2011-05-09T23:00:00Z,28.8332,-90.8320,30.05,11111222 
WAVCIS,ioos:station:WAVCIS:CSI15:1,2011-05-10T00:00:00Z,28.8332,-90.8320,29.91,11111222 
WAVCIS,ioos:station:WAVCIS:CSI15:1,2011-05-10T01:00:00Z,28.8332,-90.8320,30.91,11111222 
WAVCIS,ioos:station:WAVCIS:CSI15:1,2011-05-10T02:00:00Z,28.8332,-90.8320,29.78,11111222 
WAVCIS,ioos:station:WAVCIS:CSI15:1,2011-05-10T03:00:00Z,28.8332,-90.8320,29.62,11111222 
WAVCIS,ioos:station:WAVCIS:CSI15:1,2011-05-10T04:00:00Z,28.8332,-90.8320,29.44,11111222 
WAVCIS,ioos:station:WAVCIS:CSI15:1,2011-05-10T05:00:00Z,28.8332,-90.8320,29.29,11111222 
WAVCIS,ioos:station:WAVCIS:CSI15:1,2011-05-10T06:00:00Z,28.8332,-90.8320,29.16,11111222 
WAVCIS,ioos:station:WAVCIS:CSI15:1,2011-05-10T07:00:00Z,28.8332,-90.8320,28.94,11111222 
WAVCIS,ioos:station:WAVCIS:CSI15:1,2011-05-10T08:00:00Z,28.8332,-90.8320,28.84,11111222 
WAVCIS,ioos:station:WAVCIS:CSI15:1,2011-05-10T09:00:00Z,28.8332,-90.8320,28.8,11111222 
WAVCIS,ioos:station:WAVCIS:CSI15:1,2011-05-10T10:00:00Z,28.8332,-90.8320,28.79,11111222 
WAVCIS,ioos:station:WAVCIS:CSI15:1,2011-05-10T11:00:00Z,28.8332,-90.8320,28.74,11111222 
WAVCIS,ioos:station:WAVCIS:CSI15:1,2011-05-10T12:00:00Z,28.8332,-90.8320,28.87,11111222 
WAVCIS,ioos:station:WAVCIS:CSI15:1,2011-05-10T13:00:00Z,28.8332,-90.8320,29.01,11111222 
WAVCIS,ioos:station:WAVCIS:CSI15:1,2011-05-10T14:00:00Z,28.8332,-90.8320,29.1,11111222 
WAVCIS,ioos:station:WAVCIS:CSI15:1,2011-05-10T15:00:00Z,28.8332,-90.8320,29.16,11111222 
WAVCIS,ioos:station:WAVCIS:CSI15:1,2011-05-10T16:00:00Z,28.8332,-90.8320,29.19,11111222 
WAVCIS,ioos:station:WAVCIS:CSI15:1,2011-05-10T17:00:00Z,28.8332,-90.8320,29.25,11111222 
WAVCIS,ioos:station:WAVCIS:CSI15:1,2011-05-10T18:00:00Z,28.8332,-90.8320,29.49,11111222 
WAVCIS,ioos:station:WAVCIS:CSI15:1,2011-05-10T19:00:00Z,28.8332,-90.8320,29.54,11111222 
WAVCIS,ioos:station:WAVCIS:CSI15:1,2011-05-10T20:00:00Z,28.8332,-90.8320,29.52,11111222 
WAVCIS,ioos:station:WAVCIS:CSI15:1,2011-05-10T21:00:00Z,28.8332,-90.8320,30.67,11111222 
WAVCIS,ioos:station:WAVCIS:CSI15:1,2011-05-10T22:00:00Z,28.8332,-90.8320,30.42,11111222 
WAVCIS,ioos:station:WAVCIS:CSI15:1,2011-05-10T23:00:00Z,28.8332,-90.8320,31.44,11111222 
WAVCIS,ioos:station:WAVCIS:CSI15:1,2011-05-11T00:00:00Z,28.8332,-90.8320,30.13,11111222 
WAVCIS,ioos:station:WAVCIS:CSI15:1,2011-05-11T01:00:00Z,28.8332,-90.8320,30.6,11111222 
WAVCIS,ioos:station:WAVCIS:CSI15:1,2011-05-11T02:00:00Z,28.8332,-90.8320,31.46,11111222 
WAVCIS,ioos:station:WAVCIS:CSI15:1,2011-05-11T03:00:00Z,28.8332,-90.8320,29.57,11111222 
WAVCIS,ioos:station:WAVCIS:CSI15:1,2011-05-11T04:00:00Z,28.8332,-90.8320,29.54,11111222 
WAVCIS,ioos:station:WAVCIS:CSI15:1,2011-05-11T05:00:00Z,28.8332,-90.8320,31.23,11111222 
WAVCIS,ioos:station:WAVCIS:CSI15:1,2011-05-11T06:00:00Z,28.8332,-90.8320,29.52,11111222 
WAVCIS,ioos:station:WAVCIS:CSI15:1,2011-05-11T07:00:00Z,28.8332,-90.8320,29.06,11111222 
WAVCIS,ioos:station:WAVCIS:CSI15:1,2011-05-11T08:00:00Z,28.8332,-90.8320,28.69,11111222 
WAVCIS,ioos:station:WAVCIS:CSI15:1,2011-05-11T09:00:00Z,28.8332,-90.8320,28.56,11111222 
WAVCIS,ioos:station:WAVCIS:CSI15:1,2011-05-11T10:00:00Z,28.8332,-90.8320,28.47,11111222 
WAVCIS,ioos:station:WAVCIS:CSI15:1,2011-05-11T11:00:00Z,28.8332,-90.8320,28.65,11111222 
WAVCIS,ioos:station:WAVCIS:CSI15:1,2011-05-11T12:00:00Z,28.8332,-90.8320,28.94,11111222 
WAVCIS,ioos:station:WAVCIS:CSI15:1,2011-05-11T13:00:00Z,28.8332,-90.8320,29.14,11111222 
WAVCIS,ioos:station:WAVCIS:CSI15:1,2011-05-11T14:00:00Z,28.8332,-90.8320,29.41,11111222 
WAVCIS,ioos:station:WAVCIS:CSI15:1,2011-05-11T15:00:00Z,28.8332,-90.8320,29.89,11111222 
WAVCIS,ioos:station:WAVCIS:CSI15:1,2011-05-11T16:00:00Z,28.8332,-90.8320,28.9,11111222 
WAVCIS,ioos:station:WAVCIS:CSI15:1,2011-05-11T17:00:00Z,28.8332,-90.8320,28.93,11111222 
WAVCIS,ioos:station:WAVCIS:CSI15:1,2011-05-11T18:00:00Z,28.8332,-90.8320,29.1,11111222 
WAVCIS,ioos:station:WAVCIS:CSI15:1,2011-05-11T19:00:00Z,28.8332,-90.8320,29.28,11111222 
WAVCIS,ioos:station:WAVCIS:CSI15:1,2011-05-11T20:00:00Z,28.8332,-90.8320,29.52,11111222 
WAVCIS,ioos:station:WAVCIS:CSI15:1,2011-05-11T21:00:00Z,28.8332,-90.8320,29.52,11111222 
WAVCIS,ioos:station:WAVCIS:CSI15:1,2011-05-11T22:00:00Z,28.8332,-90.8320,29.68,11111222 
WAVCIS,ioos:station:WAVCIS:CSI15:1,2011-05-11T23:00:00Z,28.8332,-90.8320,30.23,11111222 
WAVCIS,ioos:station:WAVCIS:CSI15:1,2011-05-12T00:00:00Z,28.8332,-90.8320,29.67,11111222 
WAVCIS,ioos:station:WAVCIS:CSI15:1,2011-05-12T01:00:00Z,28.8332,-90.8320,29.41,11111222 
WAVCIS,ioos:station:WAVCIS:CSI15:1,2011-05-12T02:00:00Z,28.8332,-90.8320,29.84,11111222 
WAVCIS,ioos:station:WAVCIS:CSI15:1,2011-05-12T03:00:00Z,28.8332,-90.8320,29.23,11111222 
WAVCIS,ioos:station:WAVCIS:CSI15:1,2011-05-12T04:00:00Z,28.8332,-90.8320,29.47,11111222 